| time (UTC) | temp C | wind direction | speed KPH | gust KPH | rain 1hr cm | rain 24hr cm | rain mn cm | humidity % | barometer mb |
| 20260905061603 | 16 | 348 | 12.9 | 17.7 | 0.00 | 0.00 | 0.00 | 51 | 1014.2 |
| 20260905060022 | 16 | 13 | 6.4 | 12.9 | 0.00 | 0.00 | 0.00 | 53 | 1014.1 |
| 20260905054521 | 16 | 277 | 0.0 | 6.4 | 0.00 | 0.00 | 0.00 | 56 | 1014.1 |
| 20260905053018 | 17 | 274 | 3.2 | 6.4 | 0.00 | 0.00 | 0.00 | 50 | 1014.0 |
| 20260905051507 | 18 | 340 | 9.7 | 20.9 | 0.00 | 0.00 | 0.00 | 48 | 1013.8 |
| 20260905050010 | 18 | 347 | 8.0 | 12.9 | 0.00 | 0.00 | 0.00 | 49 | 1013.8 |
| 20260905044514 | 17 | 314 | 4.8 | 12.9 | 0.00 | 0.00 | 0.00 | 50 | 1013.9 |
| 20260905043006 | 18 | 338 | 11.3 | 17.7 | 0.00 | 0.00 | 0.00 | 46 | 1013.8 |
| 20260905041510 | 18 | 336 | 0.0 | 3.2 | 0.00 | 0.00 | 0.00 | 44 | 1013.8 |
| 20260905040006 | 18 | 36 | 1.6 | 11.3 | 0.00 | 0.00 | 0.00 | 43 | 1013.8 |
| 20260905034508 | 17 | 274 | 6.4 | 11.3 | 0.00 | 0.00 | 0.00 | 55 | 1013.6 |
| 20260905033045 | 18 | 266 | 11.3 | 16.1 | 0.00 | 0.00 | 0.00 | 52 | 1013.5 |
| 20260905031545 | 19 | 290 | 6.4 | 17.7 | 0.00 | 0.00 | 0.00 | 40 | 1013.5 |
| 20260905030025 | 20 | 353 | 8.0 | 9.7 | 0.00 | 0.00 | 0.00 | 36 | 1013.2 |
| 20260905024525 | 20 | 357 | 6.4 | 8.0 | 0.00 | 0.00 | 0.00 | 36 | 1013.1 |
| 20260905023007 | 21 | 23 | 1.6 | 3.2 | 0.00 | 0.00 | 0.00 | 35 | 1013.1 |
| 20260905021507 | 21 | 69 | 1.6 | 4.8 | 0.00 | 0.00 | 0.00 | 35 | 1013.0 |
| 20260905020049 | 21 | 63 | 4.8 | 6.4 | 0.00 | 0.00 | 0.00 | 34 | 1013.0 |
| 20260905014548 | 22 | 62 | 1.6 | 6.4 | 0.00 | 0.00 | 0.00 | 33 | 1012.9 |
| 20260905013028 | 22 | 82 | 4.8 | 8.0 | 0.00 | 0.00 | 0.00 | 32 | 1012.8 |
| 20260905011528 | 22 | 117 | 4.8 | 6.4 | 0.00 | 0.00 | 0.00 | 33 | 1012.7 |
| 20260905010016 | 22 | 103 | 6.4 | 9.7 | 0.00 | 0.00 | 0.00 | 32 | 1012.7 |
| 20260905004509 | 22 | 148 | 3.2 | 9.7 | 0.00 | 0.00 | 0.00 | 34 | 1012.6 |
| 20260905003108 | 22 | 143 | 4.8 | 12.9 | 0.00 | 0.00 | 0.00 | 35 | 1012.6 |
| 20260905001550 | 22 | 111 | 14.5 | 17.7 | 0.00 | 0.00 | 0.00 | 34 | 1012.5 |
| 20260905000050 | 22 | 169 | 9.7 | 12.9 | 0.00 | 0.00 | 0.00 | 34 | 1012.6 |
| 20260904234540 | 22 | 91 | 6.4 | 16.1 | 0.00 | 0.00 | 0.00 | 35 | 1012.5 |
| 20260904233032 | 22 | 146 | 8.0 | 19.3 | 0.00 | 0.00 | 0.00 | 36 | 1012.6 |
| 20260904231513 | 22 | 138 | 11.3 | 19.3 | 0.00 | 0.00 | 0.00 | 37 | 1012.6 |
| 20260904230013 | 22 | 190 | 9.7 | 20.9 | 0.00 | 0.00 | 0.00 | 37 | 1012.7 |
| 20260904224556 | 22 | 138 | 4.8 | 14.5 | 0.00 | 0.00 | 0.00 | 39 | 1012.6 |
| 20260904223058 | 22 | 124 | 8.0 | 17.7 | 0.00 | 0.00 | 0.00 | 39 | 1012.6 |
| 20260904221535 | 22 | 135 | 16.1 | 24.1 | 0.00 | 0.00 | 0.00 | 38 | 1012.7 |
| 20260904220055 | 22 | 67 | 4.8 | 16.1 | 0.00 | 0.00 | 0.00 | 37 | 1012.7 |
| 20260904214517 | 21 | 51 | 8.0 | 19.3 | 0.00 | 0.00 | 0.00 | 39 | 1012.7 |
| 20260904213014 | 21 | 139 | 6.4 | 19.3 | 0.00 | 0.00 | 0.00 | 39 | 1012.9 |
| 20260904211610 | 21 | 126 | 0.0 | 16.1 | 0.00 | 0.00 | 0.00 | 40 | 1012.8 |
| 20260904210056 | 21 | 115 | 12.9 | 20.9 | 0.00 | 0.00 | 0.00 | 39 | 1012.9 |
| 20260904204530 | 21 | 195 | 4.8 | 14.5 | 0.00 | 0.00 | 0.00 | 39 | 1012.9 |
| 20260904203043 | 21 | 139 | 11.3 | 19.3 | 0.00 | 0.00 | 0.00 | 40 | 1013.0 |
| 20260904201511 | 21 | 114 | 4.8 | 14.5 | 0.00 | 0.00 | 0.00 | 39 | 1013.0 |
| 20260904200009 | 20 | 108 | 4.8 | 14.5 | 0.00 | 0.00 | 0.00 | 40 | 1013.0 |
| 20260904194506 | 20 | 194 | 6.4 | 14.5 | 0.00 | 0.00 | 0.00 | 44 | 1013.0 |
| 20260904193003 | 20 | 129 | 6.4 | 14.5 | 0.00 | 0.00 | 0.00 | 47 | 1013.1 |
| 20260904191600 | 20 | 128 | 6.4 | 16.1 | 0.00 | 0.00 | 0.00 | 47 | 1013.3 |
| 20260904190059 | 19 | 200 | 4.8 | 14.5 | 0.00 | 0.00 | 0.00 | 49 | 1013.5 |
| 20260904184558 | 18 | 34 | 9.7 | 17.7 | 0.00 | 0.00 | 0.00 | 47 | 1013.6 |
| 20260904183108 | 18 | 94 | 8.0 | 14.5 | 0.00 | 0.00 | 0.00 | 50 | 1013.6 |
| 20260904181533 | 18 | 70 | 12.9 | 22.5 | 0.00 | 0.00 | 0.00 | 52 | 1013.3 |
| 20260904180030 | 17 | 53 | 6.4 | 17.7 | 0.00 | 0.00 | 0.00 | 52 | 1013.4 |
| 20260904174510 | 17 | 49 | 14.5 | 17.7 | 0.00 | 0.00 | 0.00 | 54 | 1013.3 |
| 20260904173011 | 16 | 20 | 9.7 | 17.7 | 0.00 | 0.00 | 0.00 | 58 | 1013.3 |
| 20260904171552 | 16 | 63 | 8.0 | 14.5 | 0.00 | 0.00 | 0.00 | 60 | 1013.4 |
| 20260904170048 | 15 | 98 | 6.4 | 14.5 | 0.00 | 0.00 | 0.00 | 61 | 1013.5 |
| 20260904164522 | 15 | 23 | 6.4 | 17.7 | 0.00 | 0.00 | 0.00 | 64 | 1013.5 |
| 20260904163020 | 15 | 50 | 6.4 | 16.1 | 0.00 | 0.00 | 0.00 | 63 | 1013.3 |
| 20260904161507 | 15 | 16 | 6.4 | 12.9 | 0.00 | 0.00 | 0.00 | 63 | 1013.3 |
| 20260904160004 | 14 | 92 | 8.0 | 12.9 | 0.00 | 0.00 | 0.00 | 61 | 1013.1 |
| 20260904154602 | 14 | 45 | 4.8 | 14.5 | 0.00 | 0.00 | 0.00 | 63 | 1013.1 |
| 20260904153101 | 13 | 25 | 6.4 | 8.0 | 0.00 | 0.00 | 0.00 | 69 | 1013.1 |
| 20260904151556 | 11 | 97 | 6.4 | 6.4 | 0.00 | 0.00 | 0.00 | 70 | 1013.0 |
| 20260904150056 | 12 | 38 | 3.2 | 4.8 | 0.00 | 0.00 | 0.00 | 71 | 1012.9 |
| 20260904144557 | 12 | 4 | 3.2 | 8.0 | 0.00 | 0.00 | 0.00 | 71 | 1012.7 |
| 20260904143045 | 11 | 30 | 3.2 | 6.4 | 0.00 | 0.00 | 0.00 | 73 | 1012.5 |
| 20260904141531 | 11 | 1 | 0.0 | 1.6 | 0.00 | 0.00 | 0.00 | 74 | 1012.3 |
| 20260904140036 | 10 | 3 | 4.8 | 9.7 | 0.00 | 0.00 | 0.00 | 77 | 1012.0 |
| 20260904134557 | 10 | 349 | 9.7 | 11.3 | 0.00 | 0.00 | 0.00 | 77 | 1011.7 |
| 20260904133052 | 10 | 347 | 9.7 | 11.3 | 0.00 | 0.00 | 0.00 | 77 | 1011.7 |
| 20260904131531 | 10 | 352 | 6.4 | 6.4 | 0.00 | 0.00 | 0.00 | 77 | 1011.6 |
| 20260904130030 | 9 | 338 | 0.0 | 3.2 | 0.00 | 0.00 | 0.00 | 76 | 1011.4 |
| 20260904124510 | 9 | 311 | 1.6 | 3.2 | 0.00 | 0.00 | 0.00 | 76 | 1011.1 |
| 20260904123009 | 9 | 308 | 1.6 | 8.0 | 0.00 | 0.00 | 0.00 | 77 | 1011.1 |
| 20260904121549 | 9 | 293 | 6.4 | 8.0 | 0.00 | 0.00 | 0.00 | 77 | 1011.0 |
| 20260904120053 | 10 | 284 | 1.6 | 4.8 | 0.00 | 0.00 | 0.00 | 73 | 1010.8 |
| 20260904114536 | 10 | 263 | 1.6 | 4.8 | 0.00 | 0.00 | 0.00 | 73 | 1010.7 |
| 20260904113031 | 10 | 330 | 1.6 | 3.2 | 0.00 | 0.00 | 0.00 | 74 | 1010.6 |
| 20260904111505 | 10 | 327 | 0.0 | 1.6 | 0.00 | 0.00 | 0.00 | 72 | 1010.4 |
| 20260904110005 | 11 | 328 | 1.6 | 3.2 | 0.00 | 0.00 | 0.00 | 70 | 1010.3 |
| 20260904104547 | 11 | 324 | 3.2 | 4.8 | 0.00 | 0.00 | 0.00 | 68 | 1010.3 |
| 20260904103046 | 11 | 316 | 1.6 | 6.4 | 0.00 | 0.00 | 0.00 | 69 | 1010.2 |
| 20260904101529 | 11 | 305 | 3.2 | 4.8 | 0.00 | 0.00 | 0.00 | 72 | 1009.9 |
| 20260904100029 | 11 | 35 | 0.0 | 3.2 | 0.00 | 0.00 | 0.00 | 74 | 1009.7 |
| 20260904094508 | 11 | 79 | 8.0 | 11.3 | 0.00 | 0.00 | 0.00 | 61 | 1009.5 |
| 20260904093003 | 13 | 328 | 0.0 | 8.0 | 0.00 | 0.00 | 0.00 | 56 | 1009.2 |
| 20260904091546 | 13 | 320 | 3.2 | 8.0 | 0.00 | 0.00 | 0.00 | 57 | 1009.1 |
| 20260904090046 | 13 | 315 | 3.2 | 8.0 | 0.00 | 0.00 | 0.00 | 59 | 1009.1 |
| 20260904084527 | 13 | 287 | 4.8 | 8.0 | 0.00 | 0.00 | 0.00 | 58 | 1009.3 |
| 20260904083029 | 13 | 304 | 6.4 | 8.0 | 0.00 | 0.00 | 0.00 | 57 | 1009.2 |
| 20260904081508 | 14 | 271 | 8.0 | 9.7 | 0.00 | 0.00 | 0.00 | 59 | 1009.1 |
| 20260904080008 | 13 | 281 | 4.8 | 8.0 | 0.00 | 0.00 | 0.00 | 61 | 1009.2 |
| 20260904074558 | 14 | 242 | 4.8 | 8.0 | 0.00 | 0.00 | 0.00 | 57 | 1009.2 |
| 20260904073104 | 14 | 297 | 3.2 | 11.3 | 0.00 | 0.00 | 0.00 | 58 | 1009.1 |
| 20260904071556 | 15 | 264 | 9.7 | 14.5 | 0.00 | 0.00 | 0.00 | 58 | 1009.1 |
| 20260904070056 | 15 | 277 | 6.4 | 11.3 | 0.00 | 0.00 | 0.00 | 58 | 1009.1 |
| 20260904064603 | 15 | 260 | 9.7 | 14.5 | 0.00 | 0.00 | 0.00 | 56 | 1009.0 |
| 20260904063108 | 15 | 281 | 6.4 | 11.3 | 0.00 | 0.00 | 0.00 | 56 | 1009.0 |